Regional Weather Roundup
Issued by NWS

Home | Current Version | Previous Version | Graphics & Text | Print | Product List | Glossary On
Versions: 1 2 3 4 5 6 7 8 9 10 11 12 13 14 15 16 17 18 19 20 21 22 23 24 25 26 27 28 29 30 31 32 33 34 35 36 37 38 39 40 41 42 43 44 45 46 47 48 49 50
000
ASUS43 KFSD 251110
RWRSD

WEATHER ROUNDUP FOR SOUTH DAKOTA
NATIONAL WEATHER SERVICE SIOUX FALLS SD
500 AM CST THU DEC 25 2014

NOTE: "FAIR" INDICATES FEW OR NO CLOUDS BELOW 12,000 FEET WITH NO
SIGNIFICANT WEATHER AND/OR OBSTRUCTIONS TO VISIBILITY.


SDZ001>005-009-010-012>017-251200-
NORTHWEST AND NORTH CENTRAL SOUTH DAKOTA

CITY           SKY/WX    TMP DP  RH WIND       PRES   REMARKS
BUFFALO          N/A     30  27  88 N6        29.50R WCI  24
FAITH            N/A     31  28  89 N8        29.56R WCI  23
MOBRIDGE       CLOUDY    34  28  79 N12       29.54R WCI  25
$$

SDZ012>016-024>037-041>051-057-063-072>074-251200-
SOUTHWEST AND SOUTH CENTRAL SOUTH DAKOTA

CITY           SKY/WX    TMP DP  RH WIND       PRES   REMARKS
RAPID CTY ARPT LGT SNOW  31  30  96 N8        29.52R FOG     WCI  23
PIERRE         FLURRIES  32  29  88 N8        29.54R WCI  25
CUSTER         CLOUDY    27  25  92 E10       29.43S WCI  17
ELLSWORTH AFB  FLURRIES  31  30  97 N10       29.51S WCI  22
PHILIP         LGT SNOW  32  29  88 NE6       29.53S FOG     WCI  26
PINE RIDGE     CLOUDY    32  24  72 N3        29.47R
SPEARFISH      LGT SNOW  28  28 100 NE7       29.54R WCI  21
WINNER         FAIR      28  23  81 N8        29.49R WCI  20
$$

SDZ004>011-016>023-039-040-251200-
NORTHEAST SOUTH DAKOTA

CITY           SKY/WX    TMP DP  RH WIND       PRES   REMARKS
ABERDEEN       CLOUDY    30  27  88 CALM      29.57R
WATERTOWN      CLOUDY    28  25  88 SW5       29.54R WCI  23
SISSETON         N/A     31  28  89 NW5       29.56R WCI  26
$$

SDZ017-020-022-023-036>040-048>070-251200-
SOUTHEAST SOUTH DAKOTA

CITY           SKY/WX    TMP DP  RH WIND       PRES   REMARKS
SIOUX FALLS    CLOUDY    28  24  85 S5        29.55S WCI  23
HURON          CLOUDY    26  24  92 N3        29.55R
CHAMBERLAIN    CLOUDY    26  24  91 CALM      29.52R
MITCHELL       CLOUDY    28  25  88 E5        29.53R WCI  23
YANKTON        CLOUDY    27  23  86 E7        29.54F WCI  19
$$

ABBREVIATIONS USED IN REMARKS
   TC - TEMPERATURE IN CELSIUS
  WCI - WIND CHILL INDEX
   HX - HEAT INDEX
  VSB - VISIBILITY




USA.gov is the U.S. government's official web portal to all federal, state and local government web resources and services.